West Bend, WI

9:50 AM CDT on May 27, 2018 (GMT -0500)
West Bend Municipal

Weather History for KETB - May, 2013

Change the Weather History Date:

Friday, May 17, 2013

  Actual Average Record
Temperature  
Mean Temperature 50 °F -  
Max Temperature 55 °F 69 °F 87 °F (1987)
Min Temperature 46 °F 43 °F 24 °F (1983)
Degree Days  
Heating Degree Days 14    
Moisture  
Dew Point 40 °F    
Average Humidity 69    
Maximum Humidity 93    
Minimum Humidity 38    
Precipitation  
Precipitation 0.53 in - - ()
Sea Level Pressure  
Sea Level Pressure 30.08 in    
Wind  
Wind Speed 8 mph (ENE)    
Max Wind Speed 13 mph    
Max Gust Speed 16 mph    
Visibility 9 miles    
Events Rain    
Averages and records for this station are not official NWS values.
T = Trace of Precipitation, MM = Missing Value Source: NWS Daily Summary

Daily Weather History Graph

Daily Weather History Graph

Search for Another Location

Airport or City:

Astronomy

May. 17, 2013 Rise Set
Actual Time 5:25 AM CDT 8:12 PM CDT
Civil Twilight 4:52 AM CDT 8:45 PM CDT
Nautical Twilight 4:10 AM CDT 9:28 PM CDT
Astronomical Twilight 3:22 AM CDT 10:16 PM CDT
Moon 12:03 PM CDT (5/17) 1:00 AM CDT (5/17)
Length of Visible Light 15h 53m
Length of Day
14h 46m
Waxing Crescent, 45% of the Moon is Illuminated
May 17
Waxing Crescent
May 17
First Quarter
May 24
Full
May 31
Last Quarter
Jun 8
New

Hourly Weather History & Observations

Time (CDT) Temp. Windchill Dew Point Humidity Pressure Visibility Wind Dir Wind Speed Gust Speed Precip Events Conditions
12:15 AM 55.4 °F - 30.2 °F 38% 30.02 in 10.0 mi ENE 9.2 mph - N/A   Mostly Cloudy
12:35 AM 55.4 °F - 30.2 °F 38% 30.02 in 10.0 mi ENE 10.4 mph - N/A   Clear
12:55 AM 53.6 °F - 32.0 °F 44% 30.01 in 10.0 mi ENE 8.1 mph - N/A   Scattered Clouds
1:15 AM 53.6 °F - 32.0 °F 44% 30.01 in 10.0 mi NE 6.9 mph - N/A   Clear
1:35 AM 53.6 °F - 32.0 °F 44% 30.01 in 10.0 mi ENE 8.1 mph - N/A   Clear
1:55 AM 53.6 °F - 32.0 °F 44% 30.01 in 10.0 mi ENE 6.9 mph - N/A   Clear
2:15 AM 53.6 °F - 32.0 °F 44% 30.02 in 10.0 mi ENE 8.1 mph - N/A   Clear
2:35 AM 51.8 °F - 32.0 °F 47% 30.03 in 10.0 mi ENE 6.9 mph - N/A   Clear
2:55 AM 51.8 °F - 32.0 °F 47% 30.02 in 10.0 mi NE 8.1 mph - N/A   Clear
3:15 AM 51.8 °F - 32.0 °F 47% 30.02 in 10.0 mi NE 10.4 mph - N/A   Clear
3:35 AM 50.0 °F - 32.0 °F 50% 30.02 in 10.0 mi ENE 10.4 mph - N/A   Clear
3:55 AM 50.0 °F - 32.0 °F 50% 30.03 in 10.0 mi ENE 6.9 mph - N/A   Clear
4:15 AM 50.0 °F - 32.0 °F 50% 30.03 in 10.0 mi NE 6.9 mph - N/A   Clear
4:35 AM 50.0 °F - 33.8 °F 54% 30.03 in 10.0 mi ENE 6.9 mph - N/A   Clear
4:55 AM 50.0 °F - 33.8 °F 54% 30.04 in 10.0 mi ENE 8.1 mph - N/A   Scattered Clouds
5:15 AM 50.0 °F - 33.8 °F 54% 30.04 in 10.0 mi ENE 9.2 mph - N/A   Scattered Clouds
5:35 AM 48.2 °F - 35.6 °F 62% 30.05 in 10.0 mi ENE 5.8 mph - N/A   Mostly Cloudy
5:55 AM 50.0 °F - 35.6 °F 58% 30.05 in 10.0 mi ENE 6.9 mph - N/A   Scattered Clouds
6:15 AM 50.0 °F - 35.6 °F 58% 30.05 in 10.0 mi ENE 6.9 mph - N/A   Scattered Clouds
6:35 AM 50.0 °F - 35.6 °F 58% 30.07 in 10.0 mi ENE 5.8 mph - N/A   Overcast
7:15 AM 50.0 °F - 37.4 °F 62% 30.08 in 10.0 mi NE 9.2 mph - N/A   Overcast
7:35 AM 50.0 °F - 37.4 °F 62% 30.09 in 10.0 mi ENE 6.9 mph - N/A   Overcast
7:55 AM 50.0 °F - 37.4 °F 62% 30.10 in 10.0 mi NE 6.9 mph - N/A   Mostly Cloudy
8:15 AM 51.8 °F - 37.4 °F 58% 30.11 in 10.0 mi NNE 8.1 mph - N/A   Mostly Cloudy
8:55 AM 50.0 °F - 37.4 °F 62% 30.14 in 10.0 mi North 8.1 mph - N/A   Light Drizzle
9:15 AM 50.0 °F - 39.2 °F 66% 30.15 in 7.0 mi NNE 5.8 mph - 0.01 in Rain Rain
9:35 AM 48.2 °F - 41.0 °F 76% 30.15 in 2.0 mi Calm Calm - 0.08 in Rain Heavy Rain
9:55 AM 46.4 °F 44.3 °F 42.8 °F 87% 30.15 in 5.0 mi NNE 4.6 mph - 0.15 in Rain Rain
10:15 AM 46.4 °F 42.9 °F 42.8 °F 87% 30.13 in 5.0 mi East 6.9 mph - 0.05 in Rain Heavy Rain
10:35 AM 46.4 °F 42.4 °F 42.8 °F 87% 30.11 in 3.0 mi ENE 8.1 mph - 0.14 in Rain Heavy Rain
10:55 AM 46.4 °F 44.3 °F 42.8 °F 87% 30.13 in 10.0 mi East 4.6 mph - 0.19 in Rain Rain
11:15 AM 46.4 °F 41.5 °F 42.8 °F 87% 30.13 in 7.0 mi East 10.4 mph - 0.03 in Rain Rain
11:35 AM 46.4 °F 40.7 °F 44.6 °F 93% 30.11 in 5.0 mi East 12.7 mph - 0.09 in Rain Rain
11:55 AM 46.4 °F 42.9 °F 44.6 °F 93% 30.12 in 5.0 mi ENE 6.9 mph - 0.14 in Rain Rain
12:15 PM 46.4 °F 41.5 °F 44.6 °F 93% 30.12 in 10.0 mi ENE 10.4 mph - 0.04 in Rain Light Rain
12:35 PM 48.2 °F - 44.6 °F 87% 30.11 in 10.0 mi ENE 12.7 mph 16.1 mph 0.04 in Rain Rain
12:55 PM 46.4 °F 40.7 °F 44.6 °F 93% 30.11 in 10.0 mi ENE 12.7 mph - 0.05 in Rain Rain
1:15 PM 46.4 °F 41.5 °F 42.8 °F 87% 30.11 in 10.0 mi ENE 10.4 mph - N/A   Light Drizzle
1:35 PM 46.4 °F 41.5 °F 44.6 °F 93% 30.11 in 10.0 mi ENE 10.4 mph - N/A   Overcast
2:15 PM 48.2 °F - 44.6 °F 87% 30.11 in 10.0 mi East 10.4 mph - N/A   Overcast
2:35 PM 50.0 °F - 44.6 °F 82% 30.11 in 10.0 mi East 8.1 mph - N/A Rain Light Rain
2:55 PM 50.0 °F - 44.6 °F 82% 30.10 in 10.0 mi ENE 8.1 mph - N/A   Light Drizzle
3:15 PM 51.8 °F - 44.6 °F 76% 30.10 in 10.0 mi East 8.1 mph - N/A   Light Drizzle
3:35 PM 51.8 °F - 44.6 °F 76% 30.10 in 10.0 mi East 5.8 mph - N/A   Light Drizzle
3:55 PM 51.8 °F - 44.6 °F 76% 30.09 in 10.0 mi ENE 9.2 mph - N/A   Light Drizzle
4:15 PM 51.8 °F - 44.6 °F 76% 30.09 in 10.0 mi East 9.2 mph - N/A   Overcast
4:35 PM 53.6 °F - 42.8 °F 67% 30.08 in 10.0 mi East 9.2 mph - N/A   Overcast
4:55 PM 53.6 °F - 44.6 °F 72% 30.08 in 10.0 mi East 6.9 mph - N/A   Overcast
5:15 PM 53.6 °F - 44.6 °F 72% 30.08 in 10.0 mi East 8.1 mph - N/A   Overcast
5:35 PM 53.6 °F - 44.6 °F 72% 30.08 in 10.0 mi East 5.8 mph - N/A   Overcast
5:55 PM 53.6 °F - 42.8 °F 67% 30.08 in 10.0 mi East 4.6 mph - N/A   Overcast
6:15 PM 53.6 °F - 42.8 °F 67% 30.07 in 10.0 mi East 4.6 mph - N/A   Overcast
6:35 PM 53.6 °F - 42.8 °F 67% 30.07 in 10.0 mi ENE 4.6 mph - N/A   Overcast
6:55 PM 53.6 °F - 42.8 °F 67% 30.08 in 10.0 mi ENE 5.8 mph - N/A   Overcast
7:15 PM 53.6 °F - 42.8 °F 67% 30.08 in 10.0 mi ENE 5.8 mph - N/A   Overcast
7:35 PM 53.6 °F - 42.8 °F 67% 30.08 in 10.0 mi ENE 6.9 mph - N/A   Overcast
7:55 PM 53.6 °F - 42.8 °F 67% 30.08 in 10.0 mi East 6.9 mph - N/A   Overcast
8:15 PM 51.8 °F - 42.8 °F 71% 30.09 in 10.0 mi NE 3.5 mph - N/A Rain Light Rain
8:35 PM 51.8 °F - 44.6 °F 76% 30.09 in 10.0 mi ENE 4.6 mph - N/A   Drizzle
8:55 PM 51.8 °F - 44.6 °F 76% 30.10 in 10.0 mi Calm Calm - N/A   Overcast
9:15 PM 50.0 °F - 44.6 °F 82% 30.10 in 10.0 mi NE 5.8 mph - N/A   Drizzle
9:35 PM 50.0 °F - 44.6 °F 82% 30.10 in 10.0 mi ENE 4.6 mph - N/A   Overcast
9:55 PM 50.0 °F - 44.6 °F 82% 30.10 in 10.0 mi ENE 9.2 mph - N/A   Overcast
10:15 PM 50.0 °F - 44.6 °F 82% 30.10 in 10.0 mi East 5.8 mph - N/A   Overcast
10:35 PM 50.0 °F - 44.6 °F 82% 30.09 in 10.0 mi ENE 6.9 mph - N/A   Overcast
10:55 PM 50.0 °F - 44.6 °F 82% 30.09 in 10.0 mi ENE 5.8 mph - N/A   Overcast
11:35 PM 50.0 °F - 44.6 °F 82% 30.08 in 10.0 mi ENE 4.6 mph - N/A   Overcast
11:55 PM 50.0 °F - 44.6 °F 82% 30.07 in 10.0 mi East 3.5 mph - N/A   Overcast